星链-3837 (STARLINK-3837 )

导读

STARLINK-3837是美国SpaceX公司星链(Starlink)低轨互联网星座中的一员,于2022年4月29日由猎鹰9号火箭发射升空。该卫星运行在近地轨道,属于星链一代组网卫星,旨在为全球提供高速低延迟的宽带互联网服务,覆盖偏远地区与应急通信场景。作为星链星座规模化部署过程中的一颗卫星,它助力星链实现全球网络覆盖,目前已在轨运行近四年,仍在为星座提供网络服务支持。

Basic Information
目录编号:
52358
目录名称:
STARLINK-3837
国际标识:
2022-045AD
轨道中心:
EARTH
卫星名称:
星链-3837
卫星全名:
星链-3837 (STARLINK-3837 )
卫星状态:
在轨 (已飞行1510 天)
发射日期:
2022-04-29 UTC
国别 :
美国 (US)
星等 :
--
Orbit Information
数据来源 国际轨道数据 AOE轨道数据
星历时间 2026-06-17T10:08:54+0800
15小时前
查看轨道信息
2026-06-17T01:00:00+0800
1天前
查看轨道信息
半长轴 6917.909km 6917.895km
偏心率 0.0001369 0.0001374
轨道倾角 53.161° 53.160°
近地点辐角 88.128° 101.557°
升交点赤经 112.805° 114.519°
平近点角 271.986° 346.930°
近地点 538.824km 538.807km
远地点 540.72km 540.709km
周期 95.438分钟 95.438分钟
每日圈数 15.088308 15.088354
Detailed Information
固有亮度:
5
最大亮度:
2.5
卫星平台:
Starlink v1.5
覆盖范围:
全球
运营商:
太空探索技术公司
运营商所在国:
美国
制造商(研发单位):
太空探索技术公司
制造商所在国:
美国
使用方式:
暂无
Satellite Introduction
星链(Starlink)计划是由太空探索技术公司(SpaceX)提出的一个巨型低轨卫星互联网星座项目,计划在2019年至2024年间在太空搭建由约1.2万颗卫星组成的“星链”网络,其中1584颗将部署在地球上空550千米处的近地轨道,并从2020年开始工作。该卫星仍在工作。
2D Orbit Map
3D Orbit Map
Orbit Altitude Analysis Chart
Orbit Inclination Analysis Chart
Orbit Comprehensive Analysis Chart
View Comprehensive Chart